Regional Weather Roundup
Issued by NWS Upton, NY

Current Version | Previous Version | Text Only | Print | Product List | Glossary On
Versions: 1 2 3 4 5 6 7 8 9 10 11 12 13 14 15 16 17 18 19 20 21 22 23 24 25 26 27
000
ASUS41 KOKX 250108
RWROKX

REGIONAL WEATHER ROUNDUP
NATIONAL WEATHER SERVICE NEW YORK NY
900 PM EDT MON APR 24 2017

NOTE: "FAIR" INDICATES FEW OR NO CLOUDS BELOW 12,000 FEET WITH NO
SIGNIFICANT WEATHER AND/OR OBSTRUCTIONS TO VISIBILITY.

NYZ071-072-176-178-NJZ106-104-250200-
NEW YORK CITY METRO AREA

CITY           SKY/WX    TMP DP  RH WIND       PRES   REMARKS
Central Park   CLOUDY    55  42  61 VRB3      30.15S
Wall St Helipt CLOUDY    55  39  54 NE10      30.13F
Bronx Bot Gard   N/A     52  43  71 NE3       30.15R
LaGuardia APRT CLOUDY    52  46  80 NE9       30.13R
Kennedy INTL   CLOUDY    54  40  59 E8        30.14S
Breezy Point     N/A     52 N/A N/A E6          N/A
Newark/Liberty CLOUDY    56  43  61 E6        30.12S
Teterboro      CLOUDY    56  43  61 E6        30.12S
$$

NYZ177-179-078>081-250200-
LONG ISLAND NEW YORK

CITY           SKY/WX    TMP DP  RH WIND       PRES   REMARKS
Jones Beach      N/A     52 N/A N/A E14         N/A
Matinecock PT  NOT AVBL
Farmingdale    CLOUDY    53  38  56 E7        30.14S
MacArthur/ISP  CLOUDY    52  43  71 E6        30.14S
Shirley        CLOUDY    50  45  83 VRB3      30.16R
Mt Sinai Harb    N/A    N/A N/A N/A NE6         N/A
Westhampton    CLOUDY    50  45  83 E6        30.18R
East Hampton   CLOUDY    49  45  87 E7        30.17S
Montauk          N/A     48  45  89 NE5       30.19S
$$

NYZ052-065-067-250200-
HUDSON VALLEY

CITY           SKY/WX    TMP DP  RH WIND       PRES   REMARKS
White Plains   CLOUDY    52  43  71 E6        30.13S
Larchmont Harb   N/A     50 N/A N/A NE14        N/A
Croton O-T Hud   N/A     55 N/A N/A E5          N/A
Newburgh       MOCLDY    59  39  47 SE9       30.15R
Montgomery     CLOUDY    60  34  37 SE6       30.12R
Poughkeepsie   CLOUDY    61  34  36 SE3       30.12R
Albany         CLOUDY    57  37  47 NE10      30.15R
$$

NJZ001-105-106-008-010-013-015-019>022-104-250200-
NEW JERSEY

CITY           SKY/WX    TMP DP  RH WIND       PRES   REMARKS
Newark/Liberty CLOUDY    56  43  61 E6        30.12S
Teterboro      CLOUDY    56  43  61 E6        30.12S
Caldwell       CLOUDY    55  45  68 E3        30.13S
Somerville     CLOUDY    54  41  61 E5        30.10S
Linden         CLOUDY    55  39  55 CALM      30.13S
Sussex         LGT RAIN  57  39  51 NE3       30.12S
Andover          N/A     57  38  48 CALM      30.11S
Trenton        CLOUDY    54  38  54 E12       30.10R
Millville      LGT RAIN  51  50  96 NE13      30.05S
Atlantic City  CLOUDY    51  47  86 E20G28    30.07R
Wrightstown    CLOUDY    53  41  65 E10       30.07S
Toms River     CLOUDY    51  47  86 E7G17     30.11S
Belmar         CLOUDY    50  45  83 E9        30.12F
$$

PAZ047>061-062-071-250200-
EASTERN PENNSYLVANIA

CITY           SKY/WX    TMP DP  RH WIND       PRES   REMARKS
Philadelphia   CLOUDY    56  37  49 E15G21    30.08S
Allentown      LGT RAIN  55  44  66 E7        30.10R
Scranton       CLOUDY    61  33  35 VRB3      30.09R
$$

CTZ002-004>006-009-010-012-RIZ004-006-007-MAZ004-011-015-250200-
SOUTHERN NEW ENGLAND
 IN CT

CITY           SKY/WX    TMP DP  RH WIND       PRES   REMARKS
Bradley INTL   CLOUDY    59  35  40 S7        30.16R
Hartford       CLOUDY    55  37  50 S7        30.17R
Danbury        LGT RAIN  53  41  63 SE5       30.16R
Wtrbury/Oxford CLOUDY    52  37  58 SE6       30.18R
Bridgeport     LGT RAIN  52  46  80 NE9       30.16S
Meriden        CLOUDY    54  39  57 S6        30.17R
New Haven      CLOUDY    50  44  80 E3        30.17S
Chester          N/A     50  41  71 E5        30.17F
Groton         CLOUDY    50  44  80 NE7       30.18S
Wilimantic     MOCLDY    55  40  56 S7        30.19R

 IN RI

CITY           SKY/WX    TMP DP  RH WIND       PRES   REMARKS
Providence     CLOUDY    50  45  83 CALM      30.21R
Block Island   CLOUDY    47  46  97 NE6       30.20R
Westerly       CLOUDY    50  46  86 NE5       30.20R
 IN MA

CITY           SKY/WX    TMP DP  RH WIND       PRES   REMARKS
Boston         CLOUDY    57  40  52 S8        30.18R
Worcester      PTCLDY    57  33  40 S7        30.18R
Westfield      PTCLDY    60  41  49 S6        30.15R
Provincetown   CLOUDY    49  44  83 S7        30.22R
Nantucket      CLOUDY    47  43  86 E13       30.20F
$$

ANZ330-335-338-340-345-350-353-355-250200-
COASTAL MARINE OBSERVATIONS


STATION/POSITION TIME  SKY/WX   TEMP    WIND        PRES    VSBY  WAVE
                                AIR SEA DIR/SP/G                  HT/PER
                 (UTC)          (F)     (DEG/KT/KT) (MB)    (MI)  (FT/S)
NY HARB ENTRANCE 2350            49 50   60/ 14/ 17 1019.9          3/11
20 S FIRE ISLAND 0050            48 48   70/ 14/ 17 1019.4          3/11
GREAT SOUTH BAY  0030            52 56   70/ 12/ 14   N/A
23 SSW MONTAUK P 2350            47 46              1021.0          2/11
15 E BARNEGAT LI 0030               50                N/A           5/11
HUDSON CANYON    2350            49 47   60/ 14/ 16 1019.0          4/ 5
KINGS POINT      0030            54 48   CALM  /  2 1020.2
EXECUTION ROCKS  NOT AVBL
CENTRAL LI SOUND NOT AVBL
EASTERN LI SOUND NOT AVBL
ROBBINS REEF     0030            55      90/  9/ 11 1020.3
$$


>>>>>>>>>>>>>>>>>>>>>>>>>>>> KEY <<<<<<<<<<<<<<<<<<<<<<<<<<<
>                                                          <
>     SKY/WX - Sky Condition/Present Weather               <
>     TMP    - Temperature in Fahrenheit                   <
>     DP     - Dew Point in Fahrenheit                     <
>     RH     - Relative Humidity in Percent                <
>     WIND   - Direction (from) and Speed in MPH           <
>     PRES   - Mean Sea Level Pressure (inches of Hg)      <
>     WCI    - Wind Chill Index                            <
>     VSB    - VISIBILITY IN MILES                         <
>     HX     - HEAT INDEX                                  <
>     TC     - TEMPERATURE IN CELSIUS                      <
>     VRB    - VARIABLE WIND DIRECTION                     <
>                                                          <
>>>>>>>>>>>>>>>>>>>>>>>>>>>> KEY <<<<<<<<<<<<<<<<<<<<<<<<<<<




USA.gov is the U.S. government's official web portal to all federal, state and local government web resources and services.